Hourly Data Report for October 01, 2017

VICTORIA UNIVERSITY CS
BRITISH COLUMBIA

48°27'25.200" N
123°18'16.600" W
60.10 m
1018598
71783
WYJ

Download Data

Hourly Data (October 2017)
Hourly Data Report for October 1, 2017
TIME
LST
Temp Definition
°C
Dew Point Definition
°C
Rel Hum Definition
%
Precip. Amount Definition
mm

Wind Dir Definition
10's deg

Wind Spd Definition
km/h
Visibility Definition
km
Stn Press Definition
kPa
Hmdx Definition


Wind Chill Definition


Weather Definition


00:00 8.9 8.2 95 0.0 22 1   101.17     LegendNANA
01:00 8.4 8.1 98 0.0 23 3   101.18     LegendNANA
02:00 8.2 7.8 98 0.0 25 2   101.17     LegendNANA
03:00 8.0 7.7 98 0.0 26 2   101.19     LegendNANA
04:00 8.4 8.1 98 0.0 31 2   101.20     LegendNANA
05:00 9.0 8.7 98 0.0 9 4   101.21     LegendNANA
06:00 9.6 8.4 92 0.0 30 5   101.23     LegendNANA
07:00 10.0 8.1 88 0.0 27 3   101.27     LegendNANA
08:00 10.9 8.7 87 0.0 8 2   101.31     LegendNANA
09:00 12.2 8.9 80 0.0 9 3   101.33     LegendNANA
10:00 14.7 7.3 61 0.0 2 7   101.32     LegendNANA
11:00 14.6 7.7 63 0.0 10 4   101.33     LegendNANA
12:00 14.6 8.2 65 0.0 13 5   101.34     LegendNANA
13:00 13.2 7.4 68 0.0 1 7   101.35     LegendNANA
14:00 15.4 7.0 57 0.0 32 6   101.31     LegendNANA
15:00 15.8 8.1 60 0.0 8 3   101.29     LegendNANA
16:00 14.7 7.9 64 0.0 20 4   101.29     LegendNANA
17:00 13.6 7.4 66 0.0 23 3   101.32     LegendNANA
18:00 11.1 6.7 74 0.0 24 4   101.34     LegendNANA
19:00 9.1 7.2 88 0.0 25 2   101.35     LegendNANA
20:00 9.4 7.6 88 0.0 25 3   101.35     LegendNANA
21:00 9.2 7.4 89 0.0 24 4   101.33     LegendNANA
22:00 8.9 7.2 89 0.0 26 5   101.31     LegendNANA
23:00 8.5 6.3 86 0.0 26 4   101.31     LegendNANA

Notes on Data Quality.

Legend

  • E = Estimated
  • M = Missing
  • NA = Not Available*
  • [empty] = Indicates an unobserved value
Date modified: